Tacoma, WA

9:40 PM PST on February 24, 2017 (GMT -0800)
Gray Army Air Field

Weather History for KGRF - December, 2012

Change the Weather History Date:

Wednesday, December 5, 2012

  Actual Average Record
Temperature  
Mean Temperature 41 °F -  
Max Temperature 47 °F 46 °F 57 °F (2003)
Min Temperature 35 °F 34 °F 15 °F (2013)
Degree Days  
Heating Degree Days 24    
Moisture  
Dew Point 38 °F    
Average Humidity 88    
Maximum Humidity 97    
Minimum Humidity 66    
Precipitation  
Precipitation 0.07 in - - ()
Sea Level Pressure  
Sea Level Pressure 30.12 in    
Wind  
Wind Speed 8 mph (SSE)    
Max Wind Speed 12 mph    
Max Gust Speed 17 mph    
Visibility 10 miles    
Events Rain    
Averages and records for this station are not official NWS values.
T = Trace of Precipitation, MM = Missing Value Source: NWS Daily Summary

Daily Weather History Graph

Daily Weather History Graph

Search for Another Location

Airport or City:

Trip Planner

Search our weather history database for the weather conditions in past years. The results will help you decide how hot, cold, wet, or windy it might be!

Date:

Astronomy

Dec. 05, 2012 Rise Set
Actual Time 7:40 AM PST 4:21 PM PST
Civil Twilight 7:05 AM PST 4:56 PM PST
Nautical Twilight 6:27 AM PST 5:34 PM PST
Astronomical Twilight 5:50 AM PST 6:11 PM PST
Moon 11:37 PM PST (12/5) 11:48 AM PST (12/5)
Length of Visible Light 9h 50m
Length of Day
8h 40m
Waning Gibbous, 58% of the Moon is Illuminated
Dec 5
Waning Gibbous
Dec 6
Last Quarter
Dec 13
New
Dec 19
First Quarter
Dec 28
Full

Hourly Weather History & Observations

Time (PST) Temp. Windchill Dew Point Humidity Pressure Visibility Wind Dir Wind Speed Gust Speed Precip Events Conditions
12:08 AM 44.6 °F 40.7 °F 41.0 °F 87% 29.90 in 7.0 mi SSW 6.9 mph 17.3 mph N/A Rain Light Rain
12:13 AM 44.6 °F 39.2 °F 41.0 °F 87% 29.90 in 9.0 mi SSW 10.4 mph 17.3 mph N/A   Mostly Cloudy
12:16 AM 44.6 °F 39.2 °F 41.0 °F 87% 29.90 in 10.0 mi South 10.4 mph - N/A   Mostly Cloudy
12:21 AM 44.6 °F 38.8 °F 41.0 °F 87% 29.90 in 10.0 mi South 11.5 mph - N/A   Mostly Cloudy
12:58 AM 43.0 °F 37.2 °F 40.5 °F 91% 29.92 in 10.0 mi South 10.4 mph - 0.03 in   Partly Cloudy
1:58 AM 42.1 °F 36.1 °F 38.7 °F 88% 29.96 in 10.0 mi South 10.4 mph - N/A   Partly Cloudy
2:58 AM 42.1 °F 36.6 °F 37.6 °F 84% 30.00 in 10.0 mi South 9.2 mph - N/A   Partly Cloudy
3:58 AM 39.0 °F 32.8 °F 36.7 °F 91% 30.04 in 10.0 mi SSE 9.2 mph - N/A   Partly Cloudy
4:40 AM 41.0 °F 37.1 °F 37.4 °F 87% 30.06 in 9.0 mi WSW 5.8 mph - N/A   Light Drizzle
4:50 AM 41.0 °F 35.8 °F 37.4 °F 87% 30.06 in 8.0 mi South 8.1 mph - N/A   Light Drizzle
4:51 AM 41.0 °F 35.8 °F 37.4 °F 87% 30.06 in 9.0 mi South 8.1 mph - N/A   Mostly Cloudy
4:54 AM 41.0 °F 36.4 °F 37.4 °F 87% 30.07 in 10.0 mi South 6.9 mph - N/A   Light Drizzle
4:58 AM 41.0 °F 37.1 °F 37.4 °F 87% 30.09 in 10.0 mi South 5.8 mph - 0.00 in   Light Drizzle
5:03 AM 41.0 °F 37.1 °F 37.4 °F 87% 30.07 in 10.0 mi SE 5.8 mph - N/A   Light Drizzle
6:34 AM 39.2 °F 33.6 °F 37.4 °F 93% 30.10 in 10.0 mi SSE 8.1 mph - N/A   Mostly Cloudy
6:39 AM 39.2 °F 33.0 °F 37.4 °F 93% 30.10 in 10.0 mi SSE 9.2 mph - N/A   Scattered Clouds
6:58 AM 38.3 °F 32.5 °F 36.5 °F 93% 30.13 in 10.0 mi SSE 8.1 mph - 0.01 in   Clear
7:58 AM 35.1 °F 28.6 °F 34.0 °F 96% 30.16 in 10.0 mi SE 8.1 mph - N/A   Clear
8:58 AM 35.2 °F 28.8 °F 34.3 °F 97% 30.18 in 10.0 mi SSE 8.1 mph - N/A   Clear
9:58 AM 38.8 °F 33.2 °F 37.2 °F 94% 30.21 in 10.0 mi SE 8.1 mph - N/A   Mostly Cloudy
10:58 AM 43.9 °F 39.9 °F 39.7 °F 85% 30.22 in 10.0 mi SSE 6.9 mph - N/A   Scattered Clouds
11:58 AM 46.9 °F - 39.0 °F 74% 30.21 in 10.0 mi SSE 11.5 mph - N/A   Clear
12:58 PM 47.5 °F - 38.3 °F 70% 30.20 in 10.0 mi South 8.1 mph - N/A   Clear
1:58 PM 47.8 °F - 36.9 °F 66% 30.19 in 10.0 mi SSE 9.2 mph - N/A   Scattered Clouds
2:58 PM 46.9 °F - 36.7 °F 68% 30.20 in 10.0 mi South 8.1 mph - 0.01 in   Clear
3:58 PM 44.6 °F - 37.2 °F 75% 30.22 in 10.0 mi Variable 2.3 mph - N/A   Mostly Cloudy
4:29 PM 42.8 °F 38.6 °F 39.2 °F 87% 30.21 in 9.0 mi SW 6.9 mph - N/A   Light Drizzle
4:39 PM 42.8 °F 38.6 °F 37.4 °F 81% 30.20 in 5.0 mi SSE 6.9 mph - N/A   Overcast
4:44 PM 41.0 °F 38.0 °F 37.4 °F 87% 30.20 in 8.0 mi SSE 4.6 mph - N/A   Light Drizzle
4:49 PM 41.0 °F 35.8 °F 37.4 °F 87% 30.20 in 10.0 mi SSE 8.1 mph - N/A   Overcast
4:58 PM 41.0 °F 35.8 °F 39.2 °F 93% 30.22 in 10.0 mi ESE 8.1 mph - 0.01 in   Overcast
5:58 PM 39.4 °F 33.8 °F 38.3 °F 96% 30.21 in 10.0 mi SE 8.1 mph - N/A   Clear
6:58 PM 39.7 °F 35.6 °F 38.7 °F 96% 30.22 in 10.0 mi SE 5.8 mph - N/A   Overcast
7:58 PM 39.7 °F 35.6 °F 38.7 °F 96% 30.23 in 10.0 mi SE 5.8 mph - 0.01 in   Mostly Cloudy
8:58 PM 39.6 °F 36.3 °F 38.7 °F 97% 30.22 in 10.0 mi SE 4.6 mph - N/A   Mostly Cloudy
9:58 PM 37.9 °F 33.5 °F 37.2 °F 97% 30.21 in 10.0 mi SSE 5.8 mph - N/A   Mostly Cloudy
10:58 PM 39.2 °F - 38.1 °F 96% 30.21 in 10.0 mi South 2.3 mph - N/A   Overcast
11:58 PM 39.0 °F 35.7 °F 37.9 °F 96% 30.21 in 10.0 mi SE 4.6 mph - N/A   Overcast